Regional Weather Roundup
Issued by NWS

Home | Current Version | Previous Version | Text Only | Print | Product List | Glossary On
Versions: 1 2 3 4 5 6 7 8 9 10 11 12 13 14 15 16 17 18 19 20 21 22 23 24 25 26 27 28 29 30 31 32 33 34 35 36 37 38 39 40 41 42 43 44 45 46 47 48 49 50
000
ASHW40 PHFO 241632
RWRHI

WEATHER ROUNDUP FOR HAWAII
NATIONAL WEATHER SERVICE HONOLULU HI
600 AM HST SUN JUL 24 2016

THIS IS AN AUTOMATED REPORT THAT HAS NOT BEEN QUALITY CONTROLLED.

NOTE..."FAIR" INDICATES FEW OR NO CLOUDS BELOW 12,000 FEET WITH NO
SIGNIFICANT WEATHER AND/OR OBSTRUCTIONS TO VISIBILITY.

* - THESE SITES REPORT LIMITED FIELDS

HIZ001>004-241700-
KAUAI-NIIHAU-

CITY           SKY/WX    TMP DP  RH WIND       PRES   REMARKS
LIHUE APT      CLOUDY    76  74  93 N12       29.93R
PORT ALLEN*      N/A     77 N/A N/A N2          N/A
POIPU*           N/A     77 N/A N/A NE8G14      N/A
PRINCEVILLE*     N/A     75 N/A N/A NE7G13      N/A
KOKOLE POINT*    N/A     79 N/A N/A MISG        N/A
MOLOAA DAIRY*    N/A     75  75 100 NE1         N/A
WAIMEA HTS*    NOT AVBL
PUU OPAE*      NOT AVBL
PUU LUA*       NOT AVBL
MAKAHA RIDGE*    N/A     70  68  94 NE1         N/A
$$

HIZ005>011-241700-
OAHU-

CITY           SKY/WX    TMP DP  RH WIND       PRES   REMARKS
HONOLULU       RAIN      76  73  91 SE9       29.84S FOG
KALAELOA       CLOUDY    76  73  91 NE3       29.86S
KANEOHE MCB    RAIN      79  75  87 NE12G24   29.83S
WHEELER FIELD  FAIR      73  73 100 NW5       29.89R
BELLOWS*         N/A    N/A N/A N/A NE25G35     N/A
KAHUKU*          N/A    N/A N/A N/A VRB10G21    N/A
WHEELER*       NOT AVBL
WAIANAE HARBOR NOT AVBL
DILLINGHAM*      N/A     73  70  88 MISG        N/A
KAHUKU TRN*      N/A     73  72  94 W14G25      N/A
KAWAILOA*        N/A     73  70  88 E13G28      N/A
KII*             N/A     79  73  83 NE18G25     N/A
MAKUA RANGE*     N/A     75  72  88 W8G15       N/A
OAHU FOREST NW NOT AVBL
SCHOFIELD BRK*   N/A     72  72 100 MISG        N/A
SCHOFIELD S*   NOT AVBL
WAIANAE VLY*   NOT AVBL
KUAOKALA*      NOT AVBL
HONOULIUULI*   NOT AVBL
MOKUOLOE IS*   NOT AVBL
PALEHUA*       NOT AVBL
WAIAWA PHB*    NOT AVBL
$$

HIZ012>013-241700-
MOLOKAI-

CITY           SKY/WX    TMP DP  RH WIND       PRES   REMARKS
MOLOKAI AIRPT  MOCLDY    79  72  79 E7        29.86R
KALAUPAPA      NOT AVBL
MAKAPULAPAI*     N/A     77  73  88 E14G30      N/A
MOLOKAI 1*     NOT AVBL
PUU ALII*        N/A     64  64 100 E2G14       N/A
$$

HIZ016-241700-
KAHOOLAWE-

CITY           SKY/WX    TMP DP  RH WIND       PRES   REMARKS
KAHOOLAWE*       N/A     73 N/A N/A SE1         N/A
HAKIOAWA*        N/A     74  74 100 MISG      30.28R
HONOKANAIA*      N/A     78  75  91 E24G35    29.75F
KANELOA*         N/A     73  72  94 SE23G37   29.89F
KEALIALALO*    NOT AVBL
LUA MAKIKA*    NOT AVBL
$$

HIZ014>015-241700-
LANAI-

CITY           SKY/WX    TMP DP  RH WIND       PRES   REMARKS
LANAI CITY     LGT RAIN  73  72  94 SE28G38   29.87F FOG
LANAI 1*       NOT AVBL
$$

HIZ017>028-241700-
MAUI-

CITY           SKY/WX    TMP DP  RH WIND       PRES   REMARKS
KAHULUI        MOCLDY    75  73  93 NW7       29.83F
KAPALUA-W MAUI MOCLDY    75  72  88 VRB6      29.87
HANA AIRPORT   LGT RAIN  77  75  94 E8G24     29.90R
HANA*            N/A     77 N/A N/A E10G20      N/A
HALEAKALA SUMM   N/A     50  50 100 SE20G48     N/A
MAALAEA BAY*     N/A     75 N/A N/A NW9G16      N/A
HALEAKALA*     NOT AVBL
KAUPO GAP*     NOT AVBL
KULA 1*          N/A     59  58  98 SE15G30     N/A
$$

HIZ023>026-241700-
BIG ISLAND OF HAWAII COAST AND LOWER SLOPES-

CITY           SKY/WX    TMP DP  RH WIND       PRES   REMARKS
KAILUA KONA    LGT RAIN  77  74  90 SE15G25   29.85R
HILO           MOCLDY    77  69  76 S8        29.92R
HONOKAA*         N/A     72 N/A N/A VRB1        N/A
KAWAIHAE MWT*    N/A     79 N/A N/A E3          N/A
KAWAIHAE*        N/A     79 N/A N/A CALM      29.86R
SOUTH POINT*     N/A     72 N/A N/A NW10        N/A
UPOLU AIRPORT*   N/A    N/A N/A N/A W7          N/A
KAMUELA*       CLOUDY    70  70 100 CALM      30.01R
HAKALAU*         N/A     57  54  90 S10G18      N/A
KALOKO-HONOKO*   N/A     79  72  78 SE9G18    29.84F
PALI 2*          N/A     64  64 100 SE7         N/A
KEALAKOMO*       N/A     77  73  88 W6          N/A
KAUPULEHU*     NOT AVBL
KAPAPALA*        N/A     67  66  97 NW3         N/A
LOWER KAHUKU*    N/A     63  63 100 VRB2G9      N/A
PUHE CS*         N/A     77  73  88 NE2G8       N/A
PUHO CS*       NOT AVBL
PTA KEAMUKU*     N/A     66  66 100 CALM        N/A
WAIKOLOA*      NOT AVBL
$$

HIZ027>028-241700-
BIG ISLAND OF HAWAII INTERIOR AND SUMMMITS-

CITY           SKY/WX    TMP DP  RH WIND       PRES   REMARKS
BRADSHAW FIELD CLOUDY    61  55  81 W3        30.24R
MK VISITOR CEN   N/A     52  46  82 E7          N/A
MAUNA KEA*       N/A     37  37 100 CALM        N/A
MAUNA LOA*       N/A     46  45  93 MISG        N/A
MAUNA LOA 1*   NOT AVBL
PTA KIPUKA*      N/A     75  75 100 E3          N/A
PTA RANGE 17*    N/A     61  55  82 SE3G12      N/A
PTA WEST*        N/A     79  77  94 SE5         N/A
NENE CABIN*      N/A     54  52  94 NE3         N/A
AHUMOA*        NOT AVBL
PTA PORTABLE*  NOT AVBL
PUU MALI*        N/A     57  57 100 E3          N/A
$$

HIC003-241700-
NORTHWEST ISLANDS-

CITY           SKY/WX    TMP DP  RH WIND       PRES   REMARKS
MIDWAY ISLAND  MOCLDY    75  70  83 E21       30.14S
MIDWAY NOS*      N/A     79 N/A N/A MISG      30.13S
FRENCH FRIGATE NOT AVBL
$$

PHZ110>124-180-241700-
BUOY REPORTS

STATION/POSITION TIME  TEMP    WIND        PRES    WAVE   SWELL
                       AIR SEA DIR/SP/G            HT/PER HT/DIR
                 (UTC) (F)     (DEG/KT/KT) (MB)    (FT/S) (FT/D)
BUOY 51001       1600   80 81   90/ 16/ 19 1016.0S
BUOY 51101       1550   76 78   50/ 14/ 16 1015.9R   8/11   7/100
BUOY 51100       NOT AVBL
BUOY 51002       1550   80 82   70/ 12/ 14 1013.0R   8/ 9   8
BUOY 51003       1550   80 81   20/ 12/ 16 1011.2R   8/ 8   7/ 50
BUOY 51004       1550   80 81   70/ 14/ 16 1012.8R   6/ 9   5/ 80
BARBERS PT BUOY  NOT AVBL
WAIMEA BAY BUOY  1604      79                N/A     5/ 8   2/ 30
KAILUA BAY BUOY  1511      79                N/A     8/ 8   2/ 90
LANAI BUOY       1615      81                N/A     4/ 6   2/200
BARBERS PT 2     NOT AVBL
PAUWELA MAUI     1609      79                N/A     8/ 8   2/ 80
HILO             1612      80                N/A     7/ 8   2/100
KANEOHE BAY BUOY 1606      79                N/A     7/ 8   2/ 70
HANALEI KAUAI    NOT AVBL
KAHULUI HARBOR   1600   78 80  360/  9/ 11 1010.2F
HONOLULU HARBOR  1600   78 80   60/  7/ 16 1011.1S
KILO NALU        NOT AVBL
HILO HARBOR      1600   75 79  180/  7/ 12 1012.6R
MOKUOLOE         1500   79 81   60/ 16/ 19 1011.0F
NAWILIWILI       1600   76 80  350/  6/  9 1013.0R
WHOTS BUOY       NOT AVBL
BUOY 51028       NOT AVBL
$$

......................KEY........................................
  SKY/WX - SKY CONDITIONS/PRESENT WEATHER
  TMP    - TEMPERATURE IN FAHRENHEIT
  DWPT   - DEWPOINT IN FAHRENHEIT
  RH     - RELATIVE HUMIDITY IN PERCENT
  WIND   - DIRECTION AND SPEED /MPH FOR ISLANDS...KTS FOR BUOYS/
  PRES   - MEAN SEA LEVEL PRESSURE IN INCHES OF HG
  VSB    - VISIBILITY IN MILES
  HX     - HEAT INDEX
  WCI    - WIND CHILL INDEX
  VRB    - VARIABLE WIND DIRECTION
  N/A    - NOT AVAILABLE




USA.gov is the U.S. government's official web portal to all federal, state and local government web resources and services.